Дата Время Давление Темп. Влажн. Скор.ветра Напр.ветра Макс.ветер Осадки/час Осадки
17.01.19 21:00 730.9 -1.4 91.4 4.7 193 11.5 0 0
17.01.19 20:00 730.8 -1.8 94.2 4.2 193 9.4 0 0
17.01.19 19:00 731.5 -2.5 95.2 3.6 193 9.8 0 0
17.01.19 18:00 732.3 -2.9 94.9 3.9 190 8.9 0 0
17.01.19 17:00 732.8 -3.3 94.3 4.3 196 10.6 0 0
17.01.19 16:00 733.2 -3.6 93.4 4.5 195 9.3 0 0
17.01.19 15:00 733.7 -3.9 91.7 3.9 198 9 0 0
17.01.19 14:00 734.3 -4.2 90.1 4.3 203 9.6 0 0
17.01.19 13:00 734.9 -4.3 86.3 4.6 191 9.6 0 0
17.01.19 12:00 735.7 -4.5 83.6 4.3 199 12.4 0 0
17.01.19 11:00 736 -4.8 82.2 4 192 8.6 0 0
17.01.19 10:00 736.4 -5.2 82.3 2.8 192 6.6 0 0
17.01.19 09:00 736.5 -5.5 80.9 2.7 197 5.3 0 0
17.01.19 08:00 736.6 -4.4 78.4 2 229 5.7 0 0
17.01.19 07:00 736.6 -4.5 79.4 2.2 230 6 0 0
17.01.19 06:00 736.3 -4.3 82.6 1.5 222 6.3 0 0
17.01.19 05:00 736.1 -4.4 91.5 1.8 213 4.2 0 0
17.01.19 04:00 735.8 -4.5 92 1.8 183 4.1 0 0
17.01.19 03:00 735.5 -4.8 92.1 1.7 226 4.7 0 0
17.01.19 02:00 735.3 -5.2 91.9 1.7 224 3.9 0 0
17.01.19 01:00 735 -6 91.4 1.6 216 4.1 0 0
17.01.19 00:00 734.7 -6.5 90.2 2.2 189 3.7 0 0
16.01.19 23:00 734.4 -7.1 89.8 1.6 191 3.6 0 0
16.01.19 22:00 734.1 -7.7 90.2 1.1 202 3.5 0 0